This is the latest recevied weather packets stored in our database for station/object VE6KEE-13. If no packets are shown the sender has not sent any weather packets the latest 10 day(s).
| Time | Temp. | Humidity | Pressure | Rain* | Wind** | Luminosity | Snow |
|---|---|---|---|---|---|---|---|
| 1777763847 | 22.78° C | 19% | 1017.4 hPa | 0 mm | - | - | - |
| 1777762948 | 22.78° C | 18% | 1017.5 hPa | 0 mm | - | - | - |
| 1777762046 | 23.33° C | 18% | 1017.6 hPa | 0 mm | - | - | - |
| 1777761145 | 23.89° C | 17% | 1017.7 hPa | 0 mm | - | - | - |
| 1777760248 | 24.44° C | 17% | 1017.9 hPa | 0 mm | - | - | - |
| 1777759348 | 24.44° C | 18% | 1018.1 hPa | 0 mm | - | - | - |
| 1777758443 | 24.44° C | 18% | 1018.2 hPa | 0 mm | - | - | - |
| 1777757543 | 24.44° C | 17% | 1018.6 hPa | 0 mm | - | - | - |
| 1777756641 | 24.44° C | 18% | 1018.7 hPa | 0 mm | - | - | - |
| 1777755741 | 23.89° C | 18% | 1018.8 hPa | 0 mm | - | - | - |
| 1777754840 | 23.89° C | 18% | 1018.9 hPa | 0 mm | - | - | - |
| 1777753947 | 23.33° C | 18% | 1019.1 hPa | 0 mm | - | - | - |
| 1777753038 | 23.33° C | 18% | 1019.4 hPa | 0 mm | - | - | - |
| 1777752137 | 22.78° C | 19% | 1019.6 hPa | 0 mm | - | - | - |
| 1777751237 | 22.78° C | 20% | 1019.9 hPa | 0 mm | - | - | - |
| 1777750337 | 21.67° C | 21% | 1019.9 hPa | 0 mm | - | - | - |
| 1777749435 | 21.11° C | 22% | 1020.1 hPa | 0 mm | - | - | - |
| 1777748542 | 21.11° C | 24% | 1020.2 hPa | 0 mm | - | - | - |
| 1777747634 | 20° C | 25% | 1020.5 hPa | 0 mm | - | - | - |
| 1777746733 | 20° C | 24% | 1020.5 hPa | 0 mm | - | - | - |
| 1777745836 | 20° C | 25% | 1020.6 hPa | 0 mm | - | - | - |
| 1777744931 | 20.56° C | 26% | 1020.7 hPa | 0 mm | - | - | - |
| 1777744031 | 20.56° C | 27% | 1020.8 hPa | 0 mm | - | - | - |
| 1777743136 | 20° C | 28% | 1020.8 hPa | 0 mm | - | - | - |
| 1777742229 | 18.89° C | 30% | 1020.9 hPa | 0 mm | - | - | - |
* Rain since midnight (hover to see other rain measurements)
** Current wind speed in m/s (hover to see current wind gust speed)